Location: Dal�� Lhota
(48.7500°N, 14.0167°E)
Time: 23:21:14
(UTC+00:00)

NOSS 3-4 (A) - Pass Details

Date: 24 September 2020
Orbit: 886 x 1326 km, 63.4° (Epoch: 22 October)

Event Time Altitude Azimuth Distance (km) Brightness Sun altitude
Rises 19:55:10 0° 237° (WSW) 3,495 6.7 -28.5°
Reaches altitude 10° 19:57:39 10° 242° (WSW) 2,577 6.0 -28.8°
Maximum altitude 20:03:30 55° 320° (NW) 1,119 4.0 -29.6°
Drops below altitude 10° 20:09:51 10° 38° (NE) 2,793 5.9 -30.4°
Sets 20:12:40 0° 43° (NE) 3,812 6.6 -30.7°
